Location: Akdamlar
(36.8729°N, 30.5187°E)
Time: 19:32:47
(UTC+00:00)

Cosmos 2151 Rocket - Pass Details

Date: 18 September 2020
Orbit: 618 x 642 km, 82.5° (Epoch: 26 October)

Event Time Altitude Azimuth Distance (km) Brightness Sun altitude
Rises 17:03:57 0° 164° (SSE) 2,891 6.7 -13.4°
Reaches altitude 10° 17:06:19 10° 154° (SSE) 1,993 5.8 -13.9°
Maximum altitude 17:10:16 33° 91° (E) 1,064 4.2 -14.6°
Drops below altitude 10° 17:14:16 10° 27° (NNE) 2,021 6.1 -15.4°
Sets 17:16:41 0° 18° (NNE) 2,937 7.0 -15.9°
